2023/08/05 00:00:00,80.6,20.7
2023/08/05 00:10:00,80.7,20.5
2023/08/05 00:20:00,81.0,20.7
2023/08/05 00:30:00,81.3,20.7
2023/08/05 00:40:00,81.4,20.9
2023/08/05 00:50:00,81.0,20.7
2023/08/05 01:00:00,81.0,20.8
2023/08/05 01:10:00,81.8,20.6
2023/08/05 01:20:00,81.0,20.8
2023/08/05 01:30:00,81.0,20.6
2023/08/05 01:40:00,81.0,20.5
2023/08/05 01:50:00,81.0,20.6
2023/08/05 02:00:00,81.0,20.4
2023/08/05 02:10:00,81.0,20.5
2023/08/05 02:20:00,81.0,20.5
2023/08/05 02:30:00,81.0,20.4
2023/08/05 02:40:00,81.0,20.4
2023/08/05 02:50:00,---,20.5
2023/08/05 03:00:00,81.0,20.4
2023/08/05 03:10:00,81.0,20.4
2023/08/05 03:20:00,81.0,20.6
2023/08/05 03:30:00,81.0,20.6
2023/08/05 03:40:00,81.1,20.7
2023/08/05 03:50:00,81.3,20.7
2023/08/05 04:00:00,81.4,20.7
2023/08/05 04:10:00,81.5,20.6
2023/08/05 04:20:00,81.5,20.8
2023/08/05 04:30:00,81.5,20.9
2023/08/05 04:40:00,81.2,20.9
2023/08/05 04:50:00,81.2,20.7
2023/08/05 05:00:00,81.2,20.9
2023/08/05 05:10:00,81.3,20.9
2023/08/05 05:20:00,---,20.8
2023/08/05 05:30:00,81.7,20.9
2023/08/05 05:40:00,81.2,21.0
2023/08/05 05:50:00,---,20.8
2023/08/05 06:00:00,80.8,21.1
2023/08/05 06:10:00,81.1,21.3
2023/08/05 06:20:00,81.5,21.5
2023/08/05 06:30:00,80.5,21.7
2023/08/05 06:40:00,80.6,22.0
2023/08/05 06:50:00,80.7,22.5
2023/08/05 07:00:00,80.8,22.5
2023/08/05 07:10:00,80.9,22.9
2023/08/05 07:20:00,81.1,23.3
2023/08/05 07:30:00,81.1,23.5
2023/08/05 07:40:00,81.2,24.5
2023/08/05 07:50:00,81.4,27.3
2023/08/05 08:00:00,81.8,28.7
2023/08/05 08:10:00,82.4,30.3
2023/08/05 08:20:00,82.7,30.5
2023/08/05 08:30:00,82.9,30.4
2023/08/05 08:40:00,56.2,29.9
2023/08/05 08:50:00,58.1,28.9
2023/08/05 09:00:00,---,28.0
2023/08/05 09:10:00,---,27.8
2023/08/05 09:20:00,---,28.1
2023/08/05 09:30:00,70.5,29.1
2023/08/05 09:40:00, 0.0,29.0
2023/08/05 09:50:00, 0.0,29.4
2023/08/05 10:00:00,51.6,29.8
2023/08/05 10:10:00,89.0,30.2
2023/08/05 10:20:00,51.5,30.6
2023/08/05 10:30:00,22.9,30.8
2023/08/05 10:40:00,---,30.8
2023/08/05 10:50:00,---,30.7
2023/08/05 11:00:00, 0.0,30.9
2023/08/05 11:10:00,---,30.9
2023/08/05 11:20:00,61.4,31.5
2023/08/05 11:30:00,84.0,32.5
2023/08/05 11:40:00, 0.0,32.6
2023/08/05 11:50:00, 0.0,32.1
2023/08/05 12:00:00, 1.9,32.9
2023/08/05 12:10:00, 1.4,33.3
2023/08/05 12:20:00,---,32.9
2023/08/05 12:30:00,47.4,34.2
2023/08/05 12:40:00,35.4,33.3
2023/08/05 12:50:00,64.2,32.3
2023/08/05 13:00:00,82.2,31.9
2023/08/05 13:10:00,---,31.7
2023/08/05 13:20:00,---,32.6
2023/08/05 13:30:00,---,33.8
2023/08/05 13:40:00, 0.0,34.8
2023/08/05 13:50:00,55.9,34.7
2023/08/05 14:00:00,---,33.9
2023/08/05 14:10:00,---,33.6
2023/08/05 14:20:00,62.6,33.9
2023/08/05 14:30:00,---,35.0
2023/08/05 14:40:00,65.3,35.3
2023/08/05 14:50:00,55.5,35.7
2023/08/05 15:00:00,---,35.3
2023/08/05 15:10:00,---,34.2
2023/08/05 15:20:00,---,34.3
2023/08/05 15:30:00, 0.0,34.9
2023/08/05 15:40:00,---,34.8
2023/08/05 15:50:00,---,34.7
2023/08/05 16:00:00,---,32.4
2023/08/05 16:10:00,82.9,33.8
2023/08/05 16:20:00,---,33.6
2023/08/05 16:30:00, 0.0,32.7
2023/08/05 16:40:00, 0.0,30.8
2023/08/05 16:50:00, 0.0,29.5
2023/08/05 17:00:00, 0.0,29.2
2023/08/05 17:10:00, 0.0,28.7
2023/08/05 17:20:00, 0.0,28.1
2023/08/05 17:30:00, 0.0,27.6
2023/08/05 17:40:00, 0.0,27.2
2023/08/05 17:50:00, 0.0,27.1
2023/08/05 18:00:00, 0.0,26.6
2023/08/05 18:10:00, 0.0,26.4
2023/08/05 18:20:00, 0.0,26.0
2023/08/05 18:30:00, 0.0,25.7
2023/08/05 18:40:00, 0.0,25.6
2023/08/05 18:50:00, 0.0,25.2
2023/08/05 19:00:00, 0.0,25.1
2023/08/05 19:10:00, 0.0,24.7
2023/08/05 19:20:00, 0.0,24.5
2023/08/05 19:30:00, 0.0,24.4
2023/08/05 19:40:00, 0.0,24.2
2023/08/05 19:50:00, 0.0,24.0
2023/08/05 20:00:00, 0.0,24.0
2023/08/05 20:10:00, 0.0,23.8
2023/08/05 20:20:00, 0.0,23.7
2023/08/05 20:30:00, 0.0,23.6
2023/08/05 20:40:00, 0.0,23.6
2023/08/05 20:50:00, 0.0,23.3
2023/08/05 21:00:00, 0.0,23.3
2023/08/05 21:10:00, 0.0,23.3
2023/08/05 21:20:00,---,23.2
2023/08/05 21:30:00, 0.0,23.2
2023/08/05 21:40:00, 0.0,23.1
2023/08/05 21:50:00,82.6,23.1
2023/08/05 22:00:00,82.4,23.0
2023/08/05 22:10:00,82.2,23.0
2023/08/05 22:20:00,82.1,23.0
2023/08/05 22:30:00,82.1,23.3
2023/08/05 22:40:00,82.1,23.0
2023/08/05 22:50:00,82.0,23.2
2023/08/05 23:00:00,81.8,22.9
2023/08/05 23:10:00,81.7,23.0
2023/08/05 23:20:00,80.9,22.9
2023/08/05 23:30:00,81.0,23.3
2023/08/05 23:40:00,81.0,23.4
2023/08/05 23:50:00,81.0,23.3
